Overview Statistics Trail Chart Weather Telemetry Raw packets
 

This is the latest recevied weather packets stored in our database for station/object KD4EED. If no packets are shown the sender has not sent any weather packets the latest 10 day(s).

<< 97 98 99 100 101 102 103 >>
Time Temp. Humidity Pressure Rain* Wind** Luminosity Snow
1787950298 33.33° C 49% 1008.8 hPa - - 423 W/m² -
1787949995 32.78° C 50% 1008.8 hPa - - 647 W/m² -
1787949690 32.78° C 50% 1008.6 hPa - - 628 W/m² -
1787949389 32.78° C 50% 1009 hPa - - 414 W/m² -
1787949084 33.33° C 49% 1009.1 hPa - - 528 W/m² -
1787948780 33.33° C 50% 1009.4 hPa - - 396 W/m² -
1787948480 32.78° C 51% 1009.3 hPa - - 591 W/m² -
1787948175 32.78° C 51% 1009.3 hPa - - 441 W/m² -
1787947874 32.78° C 51% 1009.5 hPa - - 430 W/m² -
1787947570 33.33° C 50% 1009.5 hPa - - 317 W/m² -
1787947269 33.33° C 49% 1009.6 hPa - - 394 W/m² -
1787946968 33.33° C 50% 1009.5 hPa - - 447 W/m² -
1787946667 33.33° C 50% 1009.4 hPa - - 680 W/m² -
1787946362 33.33° C 50% 1009.4 hPa - - 603 W/m² -
1787946056 32.78° C 51% 1009.5 hPa - - 670 W/m² -
1787945756 32.78° C 51% 1009.7 hPa - - 646 W/m² -
1787945451 32.78° C 51% 1009.9 hPa - - 640 W/m² -
1787945147 33.33° C 51% 1009.8 hPa - - 622 W/m² -
1787944844 33.33° C 51% 1009.8 hPa - - 448 W/m² -
1787944539 32.78° C 52% 1009.8 hPa - - 590 W/m² -
1787944235 32.78° C 51% 1009.8 hPa - - 551 W/m² -
1787943934 33.33° C 50% 1009.8 hPa - - 593 W/m² -
1787943630 33.33° C 50% 1010.1 hPa - - 604 W/m² -
1787943330 33.89° C 50% 1010.1 hPa - - 561 W/m² -
1787943025 33.89° C 49% 1010 hPa - - 453 W/m² -

* Rain since midnight (hover to see other rain measurements)
** Current wind speed in m/s (hover to see current wind gust speed)